Tracy, MN

3:05 AM CDT on March 30, 2017 (GMT -0500)
Tracy

Weather History for KTKC - December, 2013

Change the Weather History Date:

Thursday, December 12, 2013

  Actual Average (KMML) Record (KMML)
Temperature  
Mean Temperature 18 °F -  
Max Temperature 24 °F 29 °F 51 °F (1998)
Min Temperature 12 °F 12 °F -13 °F (2000)
Degree Days  
Heating Degree Days 47    
Moisture  
Dew Point 12 °F    
Average Humidity 78    
Maximum Humidity 90    
Minimum Humidity 69    
Precipitation  
Precipitation 0.00 in - - ()
Sea Level Pressure  
Sea Level Pressure 30.16 in    
Wind  
Wind Speed 9 mph (WSW)    
Max Wind Speed 29 mph    
Max Gust Speed 37 mph    
Visibility 10 miles    
Events Snow    
Averages and records for this station are not official NWS values.
T = Trace of Precipitation, MM = Missing Value Source: NWS Daily Summary

Daily Weather History Graph

Daily Weather History Graph

Search for Another Location

Airport or City:

Trip Planner

Search our weather history database for the weather conditions in past years. The results will help you decide how hot, cold, wet, or windy it might be!

Date:

Astronomy

Dec. 12, 2013 Rise Set
Actual Time 7:49 AM CST 4:43 PM CST
Civil Twilight 7:15 AM CST 5:16 PM CST
Nautical Twilight 6:39 AM CST 5:53 PM CST
Astronomical Twilight 6:04 AM CST 6:28 PM CST
Moon 1:58 PM CST (12/12) 3:04 AM CST (12/12)
Length of Visible Light 10h 00m
Length of Day
8h 54m
Waxing Gibbous, 80% of the Moon is Illuminated
Dec 12
Waxing Gibbous
Dec 17
Full
Dec 25
Last Quarter
Jan 1
New
Jan 7
First Quarter

Hourly Weather History & Observations

Time (CST) Temp. Windchill Dew Point Humidity Pressure Visibility Wind Dir Wind Speed Gust Speed Precip Events Conditions
12:18 AM 12.2 °F -7.5 °F 6.6 °F 78% 30.17 in 5.0 mi SW 24.2 mph 31.1 mph N/A   Haze
12:34 AM 13.1 °F -7.4 °F 7.7 °F 79% 30.17 in 2.5 mi SW 27.6 mph 34.5 mph N/A   Haze
12:58 AM 13.8 °F -6.7 °F 8.4 °F 79% 30.15 in 1.8 mi SW 28.8 mph 36.8 mph N/A Snow Light Snow
1:17 AM 13.5 °F -6.5 °F 8.1 °F 79% 30.15 in 2.5 mi SW 26.5 mph 34.5 mph N/A   Haze
1:37 AM 13.1 °F -3.1 °F 7.7 °F 79% 30.18 in 3.0 mi WSW 16.1 mph 33.4 mph N/A   Haze
1:57 AM 13.3 °F -0.5 °F 7.7 °F 78% 30.19 in 10.0 mi WSW 11.5 mph 24.2 mph N/A   Scattered Clouds
2:18 AM 14.4 °F -1.0 °F 8.6 °F 78% 30.20 in 10.0 mi WSW 15.0 mph 20.7 mph N/A   Clear
2:38 AM 14.0 °F -0.2 °F 8.4 °F 78% 30.20 in 10.0 mi WSW 12.7 mph 23.0 mph N/A   Clear
2:57 AM 13.5 °F -1.5 °F 7.9 °F 78% 30.20 in 10.0 mi WSW 13.8 mph - N/A   Clear
3:17 AM 13.1 °F -1.4 °F 7.7 °F 79% 30.21 in 10.0 mi WSW 12.7 mph - N/A   Clear
3:38 AM 12.9 °F 2.6 °F 7.5 °F 79% 30.21 in 10.0 mi WSW 6.9 mph - N/A   Clear
3:57 AM 13.1 °F 0.1 °F 7.5 °F 78% 30.21 in 10.0 mi WSW 10.4 mph - N/A   Clear
4:18 AM 12.7 °F 0.4 °F 7.3 °F 79% 30.21 in 10.0 mi West 9.2 mph - N/A   Clear
4:38 AM 13.1 °F 7.1 °F 7.3 °F 78% 30.21 in 10.0 mi West 3.5 mph - N/A   Clear
4:58 AM 13.5 °F - 7.7 °F 78% 30.21 in 10.0 mi Calm Calm - N/A   Clear
5:17 AM 13.3 °F 4.2 °F 7.5 °F 78% 30.21 in 10.0 mi West 5.8 mph - N/A   Clear
5:37 AM 13.1 °F - 7.3 °F 78% 30.21 in 10.0 mi Calm Calm - N/A   Clear
5:58 AM 13.6 °F 3.5 °F 7.7 °F 77% 30.21 in 10.0 mi West 6.9 mph - N/A   Clear
6:17 AM 13.5 °F - 7.7 °F 78% 30.22 in 10.0 mi Calm Calm - N/A   Clear
6:37 AM 14.0 °F - 8.1 °F 77% 30.23 in 10.0 mi Calm Calm - N/A   Clear
6:57 AM 14.7 °F 5.9 °F 8.6 °F 77% 30.23 in 10.0 mi WSW 5.8 mph - N/A   Mostly Cloudy
7:17 AM 14.9 °F - 9.0 °F 77% 30.23 in 10.0 mi Calm Calm - N/A   Overcast
7:38 AM 15.8 °F - 9.5 °F 76% 30.23 in 10.0 mi Calm Calm - N/A   Overcast
7:58 AM 16.2 °F - 9.9 °F 76% 30.23 in 10.0 mi Calm Calm - N/A   Mostly Cloudy
8:18 AM 16.2 °F - 10.2 °F 77% 30.23 in 10.0 mi Calm Calm - N/A   Mostly Cloudy
8:38 AM 16.5 °F - 10.2 °F 76% 30.23 in 10.0 mi Calm Calm - N/A   Scattered Clouds
8:57 AM 15.8 °F - 9.9 °F 77% 30.23 in 10.0 mi Calm Calm - N/A   Clear
9:17 AM 16.3 °F - 10.2 °F 77% 30.25 in 10.0 mi Calm Calm - N/A   Clear
9:37 AM 17.2 °F - 10.4 °F 75% 30.25 in 10.0 mi Calm Calm - N/A   Clear
9:57 AM 18.1 °F - 10.9 °F 73% 30.25 in 10.0 mi Calm Calm - N/A   Clear
10:18 AM 19.0 °F - 11.3 °F 72% 30.25 in 10.0 mi Calm Calm - N/A   Scattered Clouds
10:38 AM 20.8 °F - 12.2 °F 69% 30.24 in 10.0 mi Calm Calm - N/A   Overcast
10:58 AM 20.7 °F - 13.1 °F 73% 30.23 in 10.0 mi Calm Calm - N/A   Overcast
11:18 AM 20.8 °F - 13.1 °F 72% 30.23 in 10.0 mi Calm Calm - N/A   Overcast
11:37 AM 21.2 °F - 14.2 °F 74% 30.23 in 10.0 mi Calm Calm - N/A   Overcast
11:57 AM 21.7 °F - 14.0 °F 72% 30.22 in 10.0 mi Calm Calm - N/A   Scattered Clouds
12:18 PM 21.9 °F - 14.0 °F 72% 30.21 in 10.0 mi Calm Calm - N/A   Mostly Cloudy
12:37 PM 22.6 °F - 14.7 °F 72% 30.20 in 10.0 mi Calm Calm - N/A   Scattered Clouds
12:57 PM 23.7 °F 12.1 °F 15.6 °F 71% 30.19 in 10.0 mi SW 12.7 mph - N/A   Mostly Cloudy
1:17 PM 23.7 °F 14.0 °F 15.1 °F 70% 30.18 in 10.0 mi SW 9.2 mph - N/A   Overcast
1:38 PM 24.3 °F - 15.4 °F 69% 30.16 in 10.0 mi Calm Calm - N/A   Overcast
1:58 PM 23.2 °F 14.1 °F 14.5 °F 70% 30.16 in 10.0 mi SW 8.1 mph - N/A   Scattered Clouds
2:18 PM 22.1 °F 11.3 °F 14.7 °F 73% 30.15 in 10.0 mi SW 10.4 mph - N/A   Mostly Cloudy
2:38 PM 22.1 °F 13.7 °F 14.7 °F 73% 30.14 in 10.0 mi SW 6.9 mph - N/A   Mostly Cloudy
2:58 PM 22.5 °F - 14.9 °F 73% 30.14 in 10.0 mi Calm Calm - N/A   Scattered Clouds
3:18 PM 22.8 °F - 15.1 °F 72% 30.14 in 10.0 mi Calm Calm - N/A   Scattered Clouds
3:38 PM 22.8 °F - 15.6 °F 74% 30.13 in 10.0 mi Calm Calm - N/A   Scattered Clouds
3:57 PM 23.0 °F - 15.8 °F 74% 30.12 in 10.0 mi Calm Calm - N/A   Scattered Clouds
4:18 PM 22.6 °F - 15.8 °F 75% 30.12 in 10.0 mi Calm Calm - N/A   Clear
4:37 PM 22.5 °F 13.2 °F 16.0 °F 76% 30.12 in 10.0 mi SSW 8.1 mph - N/A   Mostly Cloudy
4:58 PM 24.3 °F - 16.7 °F 73% 30.12 in 10.0 mi Calm Calm - N/A   Overcast
5:17 PM 24.1 °F - 16.7 °F 73% 30.10 in 10.0 mi Calm Calm - N/A   Overcast
5:38 PM 23.9 °F - 16.9 °F 75% 30.11 in 10.0 mi Calm Calm - N/A   Overcast
5:57 PM 21.9 °F - 16.7 °F 80% 30.10 in 10.0 mi Calm Calm - N/A   Mostly Cloudy
6:17 PM 19.6 °F - 15.1 °F 83% 30.10 in 10.0 mi Calm Calm - N/A   Scattered Clouds
6:37 PM 18.7 °F - 14.7 °F 85% 30.10 in 10.0 mi Calm Calm - N/A   Clear
6:58 PM 18.5 °F - 14.7 °F 85% 30.10 in 10.0 mi Calm Calm - N/A   Clear
7:18 PM 18.7 °F - 14.4 °F 83% 30.10 in 10.0 mi Calm Calm - N/A   Clear
7:37 PM 16.2 °F - 11.7 °F 82% 30.09 in 10.0 mi Calm Calm - N/A   Clear
7:57 PM 15.1 °F - 11.8 °F 87% 30.08 in 10.0 mi Calm Calm - N/A   Clear
8:18 PM 15.6 °F - 12.9 °F 89% 30.08 in 10.0 mi Calm Calm - N/A   Clear
8:38 PM 16.3 °F - 13.8 °F 90% 30.08 in 10.0 mi Calm Calm - N/A   Clear
8:58 PM 15.8 °F - 12.9 °F 88% 30.08 in 10.0 mi Calm Calm - N/A   Clear
9:18 PM 15.4 °F - 12.7 °F 89% 30.08 in 10.0 mi Calm Calm - N/A   Clear
9:38 PM 15.1 °F - 11.8 °F 87% 30.08 in 10.0 mi Calm Calm - N/A   Clear
9:57 PM 15.4 °F - 12.4 °F 88% 30.07 in 10.0 mi Calm Calm - N/A   Clear
10:17 PM 14.7 °F - 12.0 °F 89% 30.07 in 10.0 mi Calm Calm - N/A   Clear
10:37 PM 13.5 °F - 10.8 °F 89% 30.06 in 10.0 mi Calm Calm - N/A   Clear
10:57 PM 14.5 °F - 11.8 °F 89% 30.06 in 10.0 mi Calm Calm - N/A   Clear
11:17 PM 16.3 °F - 13.1 °F 87% 30.07 in 10.0 mi Calm Calm - N/A   Clear
11:38 PM 15.4 °F - 12.0 °F 86% 30.06 in 10.0 mi Calm Calm - N/A   Clear
11:58 PM 14.9 °F - 11.7 °F 87% 30.06 in 10.0 mi Calm Calm - N/A   Clear